User: anonymous   Login
Location: Caltech
(34.1382°N, 118.1253°W)
Time: 20:09:34
(UTC-08:00)
Language:

Cosmos 2322 - Orbit

View from above orbital plane
View from above orbital plane
View from above satellite
View from above satellite

Ground track
Ground track

The orbit data is extracted from the following two-line orbital elements,

1 23704U 95058A   18055.83608784 -.00000180  00000-0 -70345-4 0  9990
2 23704  70.9817 234.2415 0007236  68.8272 291.3622 14.13380653151536
Epoch (UTC): 24 February 2018 20:03:57
Eccentricity: 0.0007236
inclination: 70.9817°
perigee height: 842 km
apogee height: 853 km
right ascension of ascending node: 234.2415°
argument of perigee: 68.8272°
revolutions per day: 14.13380653
mean anomaly at epoch: 291.3622°
orbit number at epoch: 15153

The dashed part of the orbit path shows where the satellite is in the earth's shadow,  

DLR